RYR1WM LIBD-LOWW

Flight info

Callsign RYR1WM
Flight time 1h 9m
Altitude 38000
Route BANAV DCT AIOSA DCT UNIPA DCT OBUTI OBUTI2W
Aircraft A320/M-SDE2FGHIJ1RWY/SB1

Departure

Time 2026-05-06 09:43
Airport Bari Karol Wojtyła International Airport (LIBD)

Arrival

Time 2026-05-06 10:53
Airport Vienna International Airport (LOWW)
Time Latitude Longitude Altitude Speed Heading
2026-05-06 09:13 41.13561 16.76455 137 ft 0 kts 159°
2026-05-06 09:34 41.13568 16.76452 136 ft 4 kts 161°
2026-05-06 09:34 41.13592 16.76442 136 ft 4 kts 170°
2026-05-06 09:34 41.13616 16.76440 136 ft 4 kts 194°
2026-05-06 09:35 41.13634 16.76453 136 ft 2 kts 248°
2026-05-06 09:35 41.13635 16.76456 136 ft 0 kts 250°
2026-05-06 09:37 41.13632 16.76448 136 ft 2 kts 250°
2026-05-06 09:38 41.13624 16.76418 136 ft 5 kts 250°
2026-05-06 09:38 41.13609 16.76366 136 ft 7 kts 249°
2026-05-06 09:38 41.13588 16.76291 136 ft 10 kts 249°
2026-05-06 09:38 41.13561 16.76191 136 ft 13 kts 252°
2026-05-06 09:39 41.13569 16.76101 136 ft 11 kts 307°
2026-05-06 09:39 41.13628 16.76039 136 ft 10 kts 339°
2026-05-06 09:39 41.13675 16.76096 136 ft 11 kts 67°
2026-05-06 09:39 41.13705 16.76200 136 ft 13 kts 69°
2026-05-06 09:40 41.13741 16.76327 135 ft 16 kts 69°
2026-05-06 09:40 41.13784 16.76479 134 ft 19 kts 69°
2026-05-06 09:40 41.13896 16.76876 124 ft 28 kts 69°
2026-05-06 09:41 41.13960 16.77103 120 ft 23 kts 70°
2026-05-06 09:41 41.14013 16.77291 124 ft 13 kts 70°
2026-05-06 09:41 41.14053 16.77380 121 ft 11 kts 34°
2026-05-06 09:41 41.14136 16.77417 119 ft 10 kts 14°
2026-05-06 09:42 41.14212 16.77402 116 ft 8 kts 335°
2026-05-06 09:42 41.14216 16.77343 114 ft 8 kts 239°
2026-05-06 09:42 41.14164 16.77165 121 ft 50 kts 249°
2026-05-06 09:42 41.13962 16.76451 126 ft 113 kts 249°
2026-05-06 09:43 41.13620 16.75265 168 ft 157 kts 248°
2026-05-06 09:43 41.13232 16.73923 770 ft 155 kts 248°
2026-05-06 09:43 41.12867 16.72557 1283 ft 163 kts 246°
2026-05-06 09:43 41.12448 16.71050 1570 ft 186 kts 245°
2026-05-06 09:44 41.11962 16.69350 1924 ft 206 kts 247°
2026-05-06 09:44 41.11456 16.67573 2670 ft 210 kts 249°
2026-05-06 09:44 41.10936 16.65753 3496 ft 212 kts 249°
2026-05-06 09:44 41.10539 16.63862 4318 ft 214 kts 266°
2026-05-06 09:45 41.10809 16.61938 5150 ft 217 kts 295°
2026-05-06 09:45 41.11810 16.60429 5901 ft 224 kts 326°
2026-05-06 09:45 41.13319 16.59835 6638 ft 234 kts 359°
2026-05-06 09:45 41.14929 16.60399 7178 ft 253 kts 24°
2026-05-06 09:46 41.16579 16.61498 7554 ft 277 kts 26°
2026-05-06 09:46 41.18334 16.62740 8102 ft 292 kts 27°
2026-05-06 09:46 41.20141 16.64041 8903 ft 298 kts 27°
2026-05-06 09:46 41.21982 16.65361 9705 ft 303 kts 26°
2026-05-06 09:47 41.23866 16.66699 10332 ft 315 kts 26°
2026-05-06 09:47 41.25845 16.68086 10578 ft 337 kts 26°
2026-05-06 09:47 41.27978 16.69570 10949 ft 353 kts 26°
2026-05-06 09:47 41.30172 16.71097 11617 ft 357 kts 26°
2026-05-06 09:48 41.32384 16.72640 12346 ft 361 kts 26°
2026-05-06 09:48 41.34620 16.74199 13045 ft 365 kts 26°
2026-05-06 09:48 41.36887 16.75781 13732 ft 370 kts 26°
2026-05-06 09:48 41.39175 16.77382 14367 ft 373 kts 26°
2026-05-06 09:49 41.41480 16.78998 14996 ft 376 kts 26°
2026-05-06 09:49 41.43801 16.80628 15546 ft 379 kts 26°
2026-05-06 09:49 41.46146 16.82278 16163 ft 382 kts 26°
2026-05-06 09:49 41.48509 16.83938 16784 ft 386 kts 26°
2026-05-06 09:50 41.50888 16.85609 17345 ft 389 kts 26°
2026-05-06 09:50 41.53291 16.87298 17989 ft 392 kts 26°
2026-05-06 09:50 41.55716 16.89005 18591 ft 396 kts 26°
2026-05-06 09:50 41.58163 16.90726 19151 ft 399 kts 25°
2026-05-06 09:51 41.60637 16.92462 19710 ft 403 kts 25°
2026-05-06 09:51 41.63129 16.94213 20276 ft 407 kts 25°
2026-05-06 09:51 41.65644 16.95987 20832 ft 410 kts 25°
2026-05-06 09:51 41.68176 16.97777 21371 ft 414 kts 25°
2026-05-06 09:52 41.70734 16.99587 21904 ft 417 kts 25°
2026-05-06 09:52 41.73188 17.01604 22408 ft 424 kts 34°
2026-05-06 09:52 41.75457 17.04162 22918 ft 429 kts 39°
2026-05-06 09:52 41.77703 17.06836 23382 ft 434 kts 39°
2026-05-06 09:53 41.79969 17.09527 23837 ft 437 kts 39°
2026-05-06 09:53 41.82252 17.12237 24259 ft 440 kts 39°
2026-05-06 09:53 41.84552 17.14970 24682 ft 443 kts 39°
2026-05-06 09:53 41.86872 17.17697 25093 ft 444 kts 36°
2026-05-06 09:54 41.89439 17.19983 25494 ft 442 kts 24°
2026-05-06 09:54 41.92261 17.21570 25900 ft 439 kts 13°
2026-05-06 09:54 41.95234 17.22420 26268 ft 436 kts
2026-05-06 09:54 41.98249 17.22528 26635 ft 432 kts 351°
2026-05-06 09:55 42.01209 17.21910 27010 ft 429 kts 341°
2026-05-06 09:55 42.04097 17.20889 27391 ft 430 kts 340°
2026-05-06 09:55 42.06998 17.19856 27772 ft 433 kts 340°
2026-05-06 09:55 42.09915 17.18817 28148 ft 435 kts 340°
2026-05-06 09:56 42.12852 17.17772 28546 ft 437 kts 340°
2026-05-06 09:56 42.15801 17.16722 28909 ft 440 kts 340°
2026-05-06 09:56 42.18772 17.15665 29263 ft 442 kts 340°
2026-05-06 09:56 42.21755 17.14607 29628 ft 445 kts 340°
2026-05-06 09:57 42.24754 17.13544 29985 ft 447 kts 340°
2026-05-06 09:57 42.27772 17.12473 30293 ft 449 kts 340°
2026-05-06 09:57 42.30760 17.11413 30589 ft 451 kts 341°
2026-05-06 09:57 42.33801 17.10332 30915 ft 452 kts 341°
2026-05-06 09:58 42.36845 17.09248 31314 ft 452 kts 341°
2026-05-06 09:58 42.39889 17.08162 31688 ft 452 kts 341°
2026-05-06 09:58 42.42926 17.07077 32096 ft 451 kts 341°
2026-05-06 09:58 42.45960 17.05994 32500 ft 451 kts 341°
2026-05-06 09:59 42.48992 17.04911 32915 ft 451 kts 341°
2026-05-06 09:59 42.52026 17.03825 33313 ft 450 kts 341°
2026-05-06 09:59 42.55054 17.02740 33727 ft 450 kts 341°
2026-05-06 09:59 42.58078 17.01651 34135 ft 449 kts 340°
2026-05-06 10:00 42.61097 17.00564 34499 ft 449 kts 340°
2026-05-06 10:00 42.64116 16.99476 34858 ft 448 kts 340°
2026-05-06 10:00 42.67123 16.98391 35211 ft 447 kts 340°
2026-05-06 10:00 42.70124 16.97308 35565 ft 446 kts 340°
2026-05-06 10:01 42.73120 16.96226 35906 ft 445 kts 340°
2026-05-06 10:01 42.76113 16.95140 36256 ft 444 kts 340°
2026-05-06 10:01 42.79060 16.94072 36579 ft 443 kts 340°
2026-05-06 10:01 42.82035 16.92995 36912 ft 442 kts 340°
2026-05-06 10:02 42.85015 16.91918 37222 ft 441 kts 340°
2026-05-06 10:02 42.87985 16.90843 37514 ft 441 kts 340°
2026-05-06 10:02 42.90945 16.89772 37809 ft 440 kts 340°
2026-05-06 10:02 42.93902 16.88697 38029 ft 440 kts 340°
2026-05-06 10:03 42.99843 16.86531 38058 ft 442 kts 341°
2026-05-06 10:03 43.05792 16.84368 38058 ft 443 kts 340°
2026-05-06 10:04 43.11745 16.82184 38062 ft 443 kts 340°
2026-05-06 10:04 43.17693 16.80002 38068 ft 443 kts 341°
2026-05-06 10:05 43.23633 16.77831 38061 ft 441 kts 341°
2026-05-06 10:05 43.29563 16.75648 38053 ft 441 kts 340°
2026-05-06 10:06 43.35454 16.73471 38061 ft 441 kts 340°
2026-05-06 10:06 43.41429 16.71264 38099 ft 441 kts 340°
2026-05-06 10:07 43.47319 16.69084 38099 ft 442 kts 340°
2026-05-06 10:07 43.53256 16.66891 38060 ft 442 kts 340°
2026-05-06 10:08 43.59202 16.64683 38035 ft 443 kts 340°
2026-05-06 10:08 43.65151 16.62463 38037 ft 443 kts 340°
2026-05-06 10:09 43.71111 16.60235 38038 ft 444 kts 340°
2026-05-06 10:09 43.77070 16.58006 38037 ft 444 kts 340°
2026-05-06 10:10 43.83039 16.55772 38039 ft 445 kts 340°
2026-05-06 10:10 43.89014 16.53532 38029 ft 446 kts 340°
2026-05-06 10:11 43.94997 16.51283 38025 ft 446 kts 340°
2026-05-06 10:11 44.00988 16.49025 38029 ft 446 kts 341°
2026-05-06 10:12 44.07199 16.47914 38036 ft 454 kts 352°
2026-05-06 10:12 44.13509 16.47393 38010 ft 454 kts 352°
2026-05-06 10:13 44.19827 16.46852 38012 ft 455 kts 352°
2026-05-06 10:13 44.26157 16.46295 38008 ft 456 kts 351°
2026-05-06 10:14 44.32484 16.45742 37999 ft 456 kts 352°
2026-05-06 10:14 44.38836 16.45202 38000 ft 457 kts 352°
2026-05-06 10:15 44.45144 16.44663 37992 ft 457 kts 352°
2026-05-06 10:15 44.51496 16.44114 37990 ft 457 kts 352°
2026-05-06 10:16 44.57888 16.43566 37992 ft 457 kts 352°
2026-05-06 10:16 44.64240 16.43006 38008 ft 458 kts 352°
2026-05-06 10:17 44.70603 16.42448 37966 ft 459 kts 352°
2026-05-06 10:17 44.76982 16.41892 37959 ft 460 kts 352°
2026-05-06 10:18 44.83376 16.41334 37963 ft 461 kts 352°
2026-05-06 10:18 44.88687 16.40861 37970 ft 460 kts 352°
2026-05-06 10:19 44.95089 16.40296 37966 ft 460 kts 352°
2026-05-06 10:19 45.01481 16.39736 37981 ft 460 kts 352°
2026-05-06 10:20 45.07876 16.39174 37978 ft 460 kts 352°
2026-05-06 10:20 45.14267 16.38612 37969 ft 460 kts 352°
2026-05-06 10:21 45.20656 16.38046 37992 ft 460 kts 352°
2026-05-06 10:21 45.27045 16.37474 37982 ft 459 kts 352°
2026-05-06 10:22 45.33377 16.36900 37975 ft 459 kts 352°
2026-05-06 10:22 45.39746 16.36333 37995 ft 459 kts 352°
2026-05-06 10:23 45.46126 16.35777 37970 ft 459 kts 352°
2026-05-06 10:23 45.52509 16.35209 37964 ft 459 kts 352°
2026-05-06 10:24 45.58885 16.34629 37958 ft 458 kts 352°
2026-05-06 10:24 45.65250 16.34045 37941 ft 459 kts 352°
2026-05-06 10:25 45.68447 16.33755 37662 ft 459 kts 352°
2026-05-06 10:25 45.71634 16.33472 37398 ft 459 kts 352°
2026-05-06 10:25 45.74821 16.33189 37120 ft 458 kts 352°
2026-05-06 10:25 45.78001 16.32902 36862 ft 458 kts 352°
2026-05-06 10:26 45.81134 16.32617 36632 ft 457 kts 352°
2026-05-06 10:26 45.84304 16.32327 36362 ft 456 kts 352°
2026-05-06 10:26 45.87472 16.32037 35687 ft 459 kts 351°
2026-05-06 10:26 45.90644 16.31746 35303 ft 456 kts 351°
2026-05-06 10:27 45.93806 16.31455 34934 ft 455 kts 351°
2026-05-06 10:27 45.96965 16.31165 34556 ft 455 kts 350°
2026-05-06 10:27 46.00131 16.30874 34200 ft 455 kts 350°
2026-05-06 10:27 46.03288 16.30587 33840 ft 454 kts 349°
2026-05-06 10:28 46.06445 16.30299 33424 ft 455 kts 350°
2026-05-06 10:28 46.09606 16.30007 33014 ft 455 kts 350°
2026-05-06 10:28 46.12763 16.29715 32614 ft 454 kts 350°
2026-05-06 10:28 46.15909 16.29424 32216 ft 452 kts 350°
2026-05-06 10:29 46.19042 16.29136 31822 ft 450 kts 350°
2026-05-06 10:29 46.22162 16.28851 31446 ft 448 kts 351°
2026-05-06 10:29 46.25271 16.28569 31077 ft 447 kts 351°
2026-05-06 10:29 46.28371 16.28291 30706 ft 446 kts 351°
2026-05-06 10:30 46.31461 16.28011 30333 ft 444 kts 351°
2026-05-06 10:30 46.34537 16.27728 30004 ft 442 kts 351°
2026-05-06 10:30 46.40621 16.26771 29930 ft 443 kts 345°
2026-05-06 10:31 46.46822 16.25276 29927 ft 457 kts 346°
2026-05-06 10:31 46.53116 16.23784 29920 ft 459 kts 346°
2026-05-06 10:32 46.59415 16.22307 29914 ft 459 kts 346°
2026-05-06 10:32 46.65726 16.20812 29917 ft 459 kts 346°
2026-05-06 10:33 46.71977 16.19318 29905 ft 458 kts 346°
2026-05-06 10:33 46.75111 16.18565 29733 ft 453 kts 346°
2026-05-06 10:33 46.78215 16.17822 28952 ft 452 kts 346°
2026-05-06 10:34 46.81313 16.17080 28223 ft 450 kts 347°
2026-05-06 10:34 46.84385 16.16348 27566 ft 447 kts 347°
2026-05-06 10:34 46.87447 16.15611 26943 ft 443 kts 347°
2026-05-06 10:34 46.90480 16.14882 26321 ft 440 kts 347°
2026-05-06 10:35 46.93493 16.14160 25739 ft 437 kts 347°
2026-05-06 10:35 46.96483 16.13442 25166 ft 434 kts 347°
2026-05-06 10:35 46.99454 16.12728 24608 ft 431 kts 347°
2026-05-06 10:35 47.02404 16.12020 24109 ft 428 kts 347°
2026-05-06 10:36 47.05302 16.11322 23963 ft 415 kts 347°
2026-05-06 10:36 47.08128 16.10638 23741 ft 408 kts 347°
2026-05-06 10:36 47.10918 16.09956 23250 ft 407 kts 347°
2026-05-06 10:36 47.13723 16.09269 22568 ft 410 kts 347°
2026-05-06 10:37 47.16552 16.08577 21875 ft 413 kts 347°
2026-05-06 10:37 47.19391 16.07886 21269 ft 414 kts 347°
2026-05-06 10:37 47.22236 16.07194 20663 ft 414 kts 347°
2026-05-06 10:37 47.25080 16.06501 20053 ft 415 kts 347°
2026-05-06 10:38 47.27924 16.05807 19538 ft 413 kts 347°
2026-05-06 10:38 47.30713 16.05129 19038 ft 411 kts 347°
2026-05-06 10:38 47.33519 16.04450 18648 ft 405 kts 348°
2026-05-06 10:38 47.36311 16.04163 18291 ft 401 kts
2026-05-06 10:39 47.39060 16.04740 17902 ft 398 kts 13°
2026-05-06 10:39 47.41680 16.05976 17510 ft 391 kts 17°
2026-05-06 10:39 47.44235 16.07249 17111 ft 385 kts 17°
2026-05-06 10:39 47.46764 16.08505 16721 ft 380 kts 17°
2026-05-06 10:40 47.49253 16.09741 16340 ft 375 kts 17°
2026-05-06 10:40 47.51719 16.10967 15955 ft 373 kts 17°
2026-05-06 10:40 47.54172 16.12183 15584 ft 370 kts 17°
2026-05-06 10:40 47.56607 16.13386 15208 ft 368 kts 17°
2026-05-06 10:41 47.59075 16.14281 14827 ft 363 kts
2026-05-06 10:41 47.61573 16.14191 14389 ft 357 kts 352°
2026-05-06 10:41 47.64050 16.13932 13931 ft 356 kts 353°
2026-05-06 10:41 47.66513 16.13717 13513 ft 354 kts 353°
2026-05-06 10:42 47.68974 16.13522 12973 ft 351 kts 353°
2026-05-06 10:42 47.71400 16.13332 12154 ft 348 kts 353°
2026-05-06 10:42 47.73802 16.13140 11378 ft 344 kts 353°
2026-05-06 10:42 47.76159 16.12945 10914 ft 330 kts 353°
2026-05-06 10:43 47.78397 16.12762 10539 ft 316 kts 353°
2026-05-06 10:43 47.80580 16.12575 10187 ft 314 kts 352°
2026-05-06 10:43 47.82750 16.12383 9886 ft 311 kts 352°
2026-05-06 10:44 47.87057 16.12003 9235 ft 307 kts 353°
2026-05-06 10:44 47.89187 16.11803 8900 ft 306 kts 352°
2026-05-06 10:44 47.91307 16.11990 8593 ft 308 kts 13°
2026-05-06 10:44 47.93281 16.13159 8037 ft 305 kts 24°
2026-05-06 10:45 47.95166 16.14519 7451 ft 304 kts 26°
2026-05-06 10:45 47.97059 16.15868 6904 ft 300 kts 26°
2026-05-06 10:45 47.98946 16.17180 6347 ft 298 kts 26°
2026-05-06 10:45 48.00788 16.18425 6167 ft 282 kts 25°
2026-05-06 10:46 48.02553 16.19608 6038 ft 273 kts 25°
2026-05-06 10:46 48.04259 16.20749 5891 ft 265 kts 25°
2026-05-06 10:46 48.05931 16.21867 5611 ft 262 kts 25°
2026-05-06 10:46 48.07580 16.22978 5376 ft 258 kts 26°
2026-05-06 10:47 48.09220 16.24070 5084 ft 258 kts 25°
2026-05-06 10:47 48.10860 16.25152 4849 ft 255 kts 26°
2026-05-06 10:47 48.12504 16.26222 4725 ft 247 kts 25°
2026-05-06 10:47 48.14059 16.27224 4593 ft 241 kts 25°
2026-05-06 10:48 48.15588 16.28205 4387 ft 236 kts 26°
2026-05-06 10:48 48.17094 16.29131 4208 ft 232 kts 25°
2026-05-06 10:48 48.18412 16.30381 4004 ft 219 kts 57°
2026-05-06 10:48 48.18861 16.32401 3704 ft 199 kts 101°
2026-05-06 10:49 48.18433 16.34255 3434 ft 181 kts 119°
2026-05-06 10:49 48.17917 16.35907 3201 ft 171 kts 119°
2026-05-06 10:49 48.17410 16.37490 2969 ft 167 kts 119°
2026-05-06 10:49 48.16913 16.39034 2755 ft 162 kts 118°
2026-05-06 10:50 48.16426 16.40541 2533 ft 159 kts 118°
2026-05-06 10:50 48.15950 16.42013 2335 ft 156 kts 118°
2026-05-06 10:50 48.15480 16.43465 2094 ft 154 kts 118°
2026-05-06 10:50 48.15023 16.44880 1879 ft 147 kts 120°
2026-05-06 10:51 48.14599 16.46189 1709 ft 137 kts 120°
2026-05-06 10:51 48.14194 16.47439 1522 ft 132 kts 119°
2026-05-06 10:51 48.13799 16.48661 1343 ft 131 kts 120°
2026-05-06 10:51 48.13402 16.49880 1164 ft 129 kts 121°
2026-05-06 10:52 48.13001 16.51117 967 ft 132 kts 120°
2026-05-06 10:52 48.12606 16.52340 784 ft 129 kts 120°
2026-05-06 10:52 48.12216 16.53539 633 ft 126 kts 119°
2026-05-06 10:52 48.11894 16.54524 614 ft 83 kts 116°
2026-05-06 10:53 48.11705 16.55106 614 ft 48 kts 116°
2026-05-06 10:53 48.11576 16.55501 613 ft 40 kts 115°
2026-05-06 10:53 48.11504 16.55849 611 ft 32 kts 95°
2026-05-06 10:53 48.11511 16.56083 619 ft 9 kts 81°
2026-05-06 10:54 48.11562 16.56136 614 ft 11 kts 353°
2026-05-06 10:54 48.11608 16.56046 617 ft 12 kts 297°
2026-05-06 10:54 48.11650 16.55922 622 ft 14 kts 296°
2026-05-06 10:54 48.11697 16.55776 618 ft 17 kts 295°
2026-05-06 10:55 48.11750 16.55610 622 ft 19 kts 296°
2026-05-06 10:55 48.11803 16.55451 625 ft 10 kts 298°
2026-05-06 10:55 48.11871 16.55430 611 ft 12 kts 11°
2026-05-06 10:55 48.11956 16.55469 618 ft 14 kts 24°
2026-05-06 10:56 48.12043 16.55530 611 ft 12 kts 25°
2026-05-06 10:56 48.12105 16.55577 622 ft 8 kts 40°
2026-05-06 10:56 48.12095 16.55638 622 ft 4 kts 116°
2026-05-06 10:56 48.12087 16.55662 609 ft 0 kts 116°
2026-05-06 10:57 48.12087 16.55663 609 ft 0 kts 116°